GSAT0212 (GALILEO 16)

Last updated on Mon Jul 07 2025 00:02:32 GMT+0000 (Coordinated Universal Time)

1 41860U 16069B 25187.10145151 -.00000021 00000+0 00000+0 0 9994 2 41860 55.2837 110.6691 0003850 358.0627 1.9170 1.70473852 53757
UTC large
Height (km)
Speed (km/s)
/
Latitude / Longitude
Inclination (degrees)
Orbital Period (minutes)
Azimuth
Elevation
Range (km)
Doppler Factor

Next 0 passes for location: London (51.5072 / 0.1276)

Sorry there are no passes over London.